Temp
61 61 60 60 60 60 60 60 60 60 60 61 61 61 60 60 60 74 70 71 73 70 70 78 82 83 83 78 82 83 67 64 68 71 76 88 86 95 99 96 97 98 98 99 100
60 60 60 60 60 60 60 60 60 60 60 60 60 60 60 60 66 75 69 71 70 70 76 78 76 80 76 76 77 72 66 66 76 79 78 84 85 88 90 91 90 92 99 103 100
60 60 60 60 60 60 59 60 60 60 60 60 60 60 60 62 69 75 70 70 69 70 78 80 80 77 72 76 76 73 66 73 76 80 81 79 79 85 83 83 90 88 93 99 100
59 60 60 59 60 59 59 59 59 60 60 60 60 60 60 65 62 77 71 70 70 75 78 78 77 72 70 69 77 69 74 75 76 79 77 75 79 77 81 85 94 95 96 97 98
59 59 59 59 59 59 59 59 59 59 59 59 60 60 64 68 73 78 71 72 77 80 77 76 73 72 67 71 73 71 73 76 77 77 77 78 75 75 78 86 90 91 92 93 96
58 58 58 58 58 59 58 58 58 58 58 59 60 59 63 64 86 84 81 82 81 80 78 78 74 76 69 68 68 72 72 73 75 75 75 72 73 76 78 84 84 84 86 90 91
58 58 58 58 58 58 58 58 57 58 59 60 61 65 67 72 86 87 85 82 83 81 75 80 80 73 72 66 74 72 66 69 71 72 71 74 66 68 78 81 79 81 84 87 89
58 57 57 57 58 58 58 58 58 59 62 61 61 68 66 86 89 85 87 84 86 85 80 81 80 73 69 72 68 64 65 57 69 72 73 71 58 71 78 77 76 78 81 85 87
57 57 57 57 57 57 57 57 58 62 62 63 63 68 67 77 78 85 86 79 81 82 82 81 76 68 68 61 58 62 54 58 63 74 73 70 62 72 78 76 75 77 79 82 85
57 57 56 57 57 57 57 57 62 61 64 73 75 67 74 74 81 83 86 84 78 76 73 72 68 61 63 59 47 54 56 60 60 68 69 66 65 72 76 76 75 77 79 80 82
57 56 56 56 57 56 60 72 70 64 70 70 72 72 76 83 85 81 84 80 77 71 60 68 59 52 59 62 63 61 57 57 63 69 66 64 63 67 73 75 74 76 77 79 81
57 57 56 56 56 56 62 73 74 76 63 76 77 76 80 82 70 77 85 70 67 60 66 62 56 65 68 65 62 60 56 56 62 67 65 63 61 68 70 71 73 74 77 79 82
56 56 56 56 55 60 75 79 86 83 64 72 77 75 76 79 70 73 77 72 65 61 62 57 62 69 66 63 59 58 55 55 55 62 64 61 58 62 70 71 74 76 77 80 82
56 56 56 55 60 82 80 85 86 82 55 66 71 75 77 78 69 80 80 72 66 59 61 60 67 63 61 60 62 53 63 60 55 54 48 59 42 55 63 66 70 73 75 77 79
56 56 55 53 72 79 82 87 83 75 44 70 71 84 79 73 73 73 82 71 60 60 60 55 59 58 56 58 62 56 63 58 55 51 49 50 45 53 62 59 64 70 74 76 79
56 56 55 75 73 84 88 85 77 54 46 64 73 69 68 72 72 73 72 75 72 62 62 59 67 64 61 63 63 64 58 57 54 48 36 48 46 48 56 62 66 72 75 76 79
56 55 57 76 76 88 86 76 55 49 68 60 61 66 64 64 66 65 62 59 52 42 46 56 58 65 66 57 61 52 49 34 32 32 35 52 48 52 61 68 69 70 71 77 79
54 53 67 80 89 86 78 64 48 61 59 66 63 63 60 64 62 61 57 52 59 54 45 43 43 57 61 55 46 43 41 36 28 29 35 51 38 49 66 70 73 75 75 80 79
54 79 78 85 88 83 69 54 54 58 63 59 60 56 56 60 58 55 52 51 53 50 38 37 43 56 56 59 54 43 37 45 33 38 34 43 51 56 61 67 71 73 74 76 79
64 74 82 87 86 76 64 52 61 67 64 61 49 55 49 54 51 49 48 56 52 51 50 40 32 50 54 59 58 52 54 35 35 28 30 42 46 51 58 60 60 66 72 75 79
66 73 82 88 83 70 59 60 63 67 66 57 54 52 54 51 52 47 48 53 53 50 49 43 34 41 49 46 47 45 39 40 42 39 31 33 43 57 58 60 55 63 68 76 78
68 66 85 85 69 68 60 63 59 65 68 63 61 57 54 54 47 47 45 50 55 46 38 43 35 33 42 55 59 55 44 44 33 36 43 39 37 61 62 63 64 64 69 76 79
63 72 84 81 57 58 63 62 65 63 63 61 57 59 60 53 43 46 51 59 57 49 37 39 34 31 41 49 51 45 49 45 41 39 35 33 39 63 63 62 65 65 70 74 78
65 62 70 72 70 61 57 58 59 68 64 64 60 61 57 53 56 50 52 54 56 47 49 42 35 33 31 41 46 40 41 45 45 34 37 40 45 54 60 61 63 67 69 73 76
70 63 65 56 59 62 62 62 60 57 64 64 58 58 55 46 52 50 54 55 56 48 44 41 34 38 41 44 45 45 45 47 43 41 36 44 47 54 58 57 63 67 69 69 62
61 59 63 59 62 59 59 59 58 59 59 57 55 58 59 52 52 47 51 51 46 42 41 42 35 39 37 46 47 41 38 40 40 40 38 41 42 52 48 55 57 64 65 65 64
68 67 61 55 57 56 57 59 59 60 62 63 61 59 56 57 60 60 61 59 50 42 40 38 36 35 33 48 47 33 32 33 34 37 34 32 43 45 45 51 55 62 64 65 61
MSLP
1019.85 1019.41 1018.99 1018.60 1018.21 1017.82 1017.44 1017.07 1016.66 1016.28 1015.94 1015.63 1015.26 1014.90 1014.53 1014.10 1013.24 1011.45 1011.30 1011.21 1010.77 1010.69 1010.61 1009.38 1008.06 1007.16 1007.02 1006.75 1006.07 1005.43 1004.25 1002.04 1001.23 1000.28 999.00 997.94 996.63 995.62 994.64 994.08 994.70 995.66 995.56 995.81 996.55
1019.88 1019.45 1018.99 1018.55 1018.09 1017.69 1017.31 1016.95 1016.54 1016.18 1015.81 1015.50 1015.15 1014.80 1014.44 1014.02 1012.71 1010.48 1011.07 1010.84 1010.80 1010.86 1010.00 1008.43 1007.57 1006.84 1006.35 1005.80 1005.56 1004.96 1003.59 1002.23 1001.91 1000.95 999.75 998.85 997.85 996.84 995.78 995.18 995.51 996.24 996.13 996.00 996.52
1019.88 1019.36 1018.88 1018.47 1018.03 1017.58 1017.17 1016.76 1016.38 1016.01 1015.65 1015.41 1015.12 1014.77 1014.45 1014.02 1011.64 1009.97 1010.70 1010.77 1010.96 1010.95 1009.93 1008.71 1007.84 1007.14 1006.27 1005.44 1004.54 1004.30 1003.17 1002.84 1002.19 1001.54 1000.92 1000.11 999.36 998.65 997.30 995.92 995.63 996.48 996.63 995.77 995.97
1019.92 1019.40 1018.90 1018.41 1017.90 1017.49 1017.09 1016.65 1016.25 1015.85 1015.48 1015.22 1014.98 1014.73 1014.37 1013.60 1010.41 1009.84 1010.49 1010.78 1010.91 1010.63 1009.57 1008.21 1007.37 1006.63 1005.78 1004.91 1003.89 1003.53 1003.23 1003.10 1002.56 1002.15 1001.82 1001.16 1000.74 999.77 998.58 997.10 996.40 996.30 996.64 996.31 995.83
1019.91 1019.38 1018.88 1018.43 1017.90 1017.47 1017.05 1016.62 1016.19 1015.79 1015.41 1015.12 1014.90 1014.75 1013.96 1011.68 1009.14 1010.06 1010.66 1010.76 1010.43 1009.53 1008.66 1007.83 1007.18 1006.49 1005.74 1004.99 1004.29 1003.50 1003.22 1002.87 1002.72 1002.59 1002.21 1001.91 1001.35 1000.69 999.52 998.40 998.03 997.53 997.10 996.67 996.09
1019.74 1019.23 1018.73 1018.23 1017.77 1017.32 1016.91 1016.51 1016.02 1015.52 1015.22 1014.96 1014.84 1014.89 1013.63 1010.13 1008.49 1009.39 1009.81 1009.55 1009.25 1008.72 1008.18 1007.67 1007.26 1006.88 1006.69 1005.92 1005.11 1004.33 1003.77 1003.31 1002.85 1002.64 1002.63 1002.37 1001.67 1001.41 1000.27 999.79 999.23 998.95 998.28 997.52 997.05
1019.57 1019.02 1018.53 1018.00 1017.48 1017.03 1016.63 1016.23 1015.79 1015.24 1014.92 1014.75 1014.73 1014.40 1012.06 1009.15 1008.42 1008.58 1008.86 1008.87 1008.71 1008.45 1008.25 1007.79 1007.34 1007.41 1007.01 1006.18 1005.43 1004.71 1004.17 1003.57 1002.98 1002.72 1002.47 1002.65 1002.12 1001.55 1001.05 1000.49 1000.10 999.79 999.14 998.39 997.83
1019.39 1018.82 1018.32 1017.73 1017.12 1016.61 1016.23 1015.96 1015.49 1014.95 1014.64 1014.57 1014.63 1013.76 1010.53 1008.19 1008.39 1008.33 1007.91 1007.69 1007.71 1007.67 1008.15 1008.20 1008.01 1007.70 1007.41 1006.85 1006.09 1005.36 1004.55 1003.31 1002.30 1001.83 1001.44 1001.82 1001.10 1001.22 1001.21 1000.97 1000.29 1000.29 999.50 998.67 998.16
1019.17 1018.57 1017.96 1017.37 1016.75 1016.27 1015.85 1015.67 1015.23 1014.68 1014.53 1014.39 1014.15 1012.43 1009.27 1008.86 1008.31 1007.72 1007.67 1007.39 1007.29 1007.52 1007.34 1007.86 1008.05 1007.70 1007.41 1006.60 1005.57 1004.45 1003.15 1002.11 1000.93 1000.39 1000.05 1000.50 1000.18 1000.25 1000.21 1000.20 1000.13 999.99 999.76 998.82 998.23
1018.92 1018.24 1017.61 1016.99 1016.40 1015.93 1015.53 1015.17 1014.48 1014.62 1014.11 1013.18 1012.07 1011.10 1008.62 1007.41 1007.17 1007.31 1007.39 1006.65 1006.54 1006.91 1007.08 1006.90 1007.12 1006.89 1006.29 1005.64 1004.47 1003.27 1002.21 1001.31 1000.38 1000.14 1000.13 1000.00 999.60 999.68 999.46 999.41 998.99 999.01 998.77 998.75 998.25
1018.67 1017.96 1017.27 1016.61 1015.95 1015.64 1014.81 1013.82 1013.79 1013.53 1012.21 1010.55 1009.34 1008.34 1007.35 1006.84 1006.80 1006.76 1006.43 1006.00 1006.70 1006.63 1006.52 1005.78 1005.67 1005.63 1005.04 1004.71 1004.06 1003.45 1002.93 1001.73 1000.90 1000.37 1000.14 999.89 999.65 999.48 999.02 998.49 998.23 998.03 997.75 997.57 997.53
1018.50 1017.71 1016.95 1016.27 1015.69 1015.35 1015.16 1012.47 1011.95 1011.69 1010.15 1008.90 1008.08 1007.69 1007.19 1006.93 1006.80 1006.11 1005.63 1005.91 1006.28 1005.92 1005.56 1005.11 1004.04 1003.65 1003.34 1003.43 1003.45 1003.13 1002.56 1001.75 1001.04 1000.82 1000.46 999.89 999.15 998.65 998.63 998.60 998.00 997.51 996.67 996.24 996.24
1018.27 1017.45 1016.68 1015.91 1015.27 1014.78 1012.56 1011.21 1010.79 1010.55 1010.01 1007.36 1006.90 1006.75 1006.63 1006.79 1006.06 1005.05 1005.59 1005.71 1005.86 1005.42 1005.11 1004.27 1003.45 1003.06 1002.65 1002.39 1002.32 1002.28 1002.11 1001.86 1001.41 1001.25 1000.53 1000.12 998.78 998.64 997.89 998.40 997.61 996.96 996.45 995.76 995.06
1017.99 1017.16 1016.40 1015.63 1015.35 1011.98 1010.85 1010.93 1010.70 1010.71 1009.65 1006.35 1005.88 1005.96 1006.19 1005.68 1004.83 1004.87 1004.90 1005.62 1005.57 1005.21 1005.00 1004.05 1003.52 1003.09 1002.42 1001.74 1001.81 1001.06 1001.53 1001.82 1002.01 1001.64 1000.30 1000.91 998.68 998.32 998.12 997.17 996.77 996.58 995.93 995.57 995.07
1017.94 1016.91 1016.14 1016.17 1014.38 1011.44 1011.14 1010.60 1011.16 1011.07 1008.36 1005.77 1005.39 1005.31 1005.25 1005.00 1004.31 1004.21 1004.32 1005.07 1005.10 1005.02 1005.15 1003.80 1003.51 1002.92 1002.19 1001.86 1002.13 1001.32 1001.97 1002.49 1002.68 1002.20 1001.73 1000.60 1000.24 997.13 997.54 996.49 995.76 995.84 995.41 995.21 994.86
1017.69 1016.82 1016.09 1013.37 1013.69 1011.51 1010.73 1010.80 1010.99 1010.07 1006.94 1005.71 1005.47 1005.39 1005.25 1004.55 1004.22 1004.47 1004.54 1004.67 1004.50 1004.56 1004.74 1003.85 1003.23 1002.45 1001.65 1001.70 1001.79 1001.83 1002.21 1002.62 1003.09 1003.12 1001.65 1000.30 1000.22 996.83 996.48 995.10 994.46 994.10 993.95 994.37 994.53
1017.11 1016.42 1016.07 1014.10 1012.01 1011.15 1010.91 1010.47 1009.87 1008.27 1007.04 1006.81 1006.81 1006.51 1005.78 1004.63 1004.53 1005.03 1005.06 1005.02 1005.10 1005.22 1005.19 1003.93 1002.86 1001.75 1001.27 1001.50 1001.56 1002.84 1003.19 1003.89 1003.53 1003.25 1000.40 1000.17 999.03 996.03 995.29 993.71 993.45 992.69 993.06 992.87 993.35
1016.55 1015.67 1014.06 1012.95 1011.46 1011.26 1011.06 1010.35 1009.21 1007.91 1008.16 1008.41 1008.04 1007.19 1005.75 1005.56 1005.83 1006.03 1006.39 1005.99 1005.74 1006.13 1006.07 1005.11 1003.41 1002.51 1003.01 1003.09 1003.92 1004.79 1005.07 1004.59 1004.03 1002.89 1001.41 1000.02 998.30 996.16 994.37 993.14 992.33 991.51 991.58 990.94 991.69
1016.08 1013.22 1012.73 1011.66 1011.29 1011.28 1010.81 1009.58 1009.15 1009.18 1009.06 1008.88 1008.56 1007.45 1007.16 1007.10 1007.47 1007.56 1008.21 1007.35 1007.71 1008.55 1008.99 1007.69 1005.38 1004.46 1003.93 1003.73 1004.37 1004.53 1005.05 1005.59 1004.95 1003.99 1002.69 999.43 997.05 996.03 994.06 992.69 991.71 991.13 990.92 990.37 990.31
1016.43 1013.37 1011.26 1011.42 1011.37 1011.38 1010.45 1009.44 1009.11 1009.27 1009.79 1009.89 1009.60 1009.17 1008.22 1007.81 1008.59 1008.90 1008.83 1008.46 1008.65 1009.67 1010.39 1009.85 1007.37 1005.84 1004.14 1003.40 1002.75 1003.15 1004.16 1005.45 1005.51 1003.80 1001.28 998.01 996.02 993.77 993.17 992.39 993.13 991.90 990.95 990.47 990.02
1015.98 1012.23 1011.19 1010.93 1010.93 1010.66 1009.77 1009.74 1009.87 1010.25 1010.35 1010.34 1009.95 1009.55 1008.98 1008.71 1009.21 1009.35 1009.39 1009.35 1009.68 1010.34 1011.23 1010.96 1009.91 1006.24 1005.45 1003.32 1001.97 1002.83 1003.92 1004.59 1004.61 1003.52 1001.36 998.82 996.11 994.70 993.93 993.60 993.09 993.41 991.78 990.18 990.07
1015.70 1012.21 1010.70 1010.92 1009.72 1010.35 1010.65 1010.73 1010.43 1009.94 1009.99 1010.02 1010.03 1009.69 1009.34 1009.00 1009.29 1009.48 1009.59 1009.60 1009.96 1011.07 1011.07 1011.20 1010.16 1007.26 1004.87 1001.88 1001.64 1001.71 1002.99 1003.61 1003.63 1002.17 1000.71 999.47 996.85 995.60 994.51 994.30 994.20 993.59 992.03 990.35 990.01
1016.72 1012.55 1011.07 1011.10 1010.97 1011.17 1011.21 1011.08 1010.30 1009.86 1009.67 1009.79 1009.99 1009.79 1009.18 1008.83 1008.56 1009.10 1008.25 1008.29 1009.13 1009.97 1011.09 1011.18 1010.43 1007.89 1003.79 1002.08 1002.19 1002.30 1002.32 1002.88 1003.16 1002.96 1000.89 999.81 996.52 995.33 994.64 994.36 993.85 993.22 991.94 990.95 990.10
1017.38 1013.53 1012.38 1012.03 1011.95 1011.91 1011.49 1010.80 1010.07 1009.55 1009.57 1009.73 1009.63 1009.25 1008.71 1008.33 1008.30 1007.09 1006.78 1007.51 1007.84 1009.38 1010.36 1010.95 1010.08 1008.69 1006.14 1003.58 1002.77 1002.59 1002.79 1002.65 1002.41 1002.04 1000.24 998.45 997.16 995.67 994.64 994.11 993.65 992.64 991.91 991.11 990.94
1017.11 1015.45 1014.98 1013.84 1013.11 1012.45 1011.70 1010.53 1009.59 1009.53 1009.84 1009.64 1009.14 1009.05 1008.42 1007.50 1006.83 1006.32 1006.20 1005.88 1006.81 1008.72 1010.15 1010.60 1009.29 1007.96 1005.71 1004.02 1002.84 1001.88 1001.73 1001.75 1001.77 1001.61 1000.71 998.69 997.13 996.21 995.58 994.79 993.65 992.73 991.94 992.67 992.80
1018.30 1017.51 1016.55 1015.40 1014.22 1013.01 1011.47 1010.79 1010.40 1009.83 1009.78 1009.16 1008.99 1008.34 1007.63 1007.01 1006.75 1005.86 1005.70 1005.66 1006.87 1008.65 1009.27 1009.66 1008.62 1007.10 1004.61 1002.57 1001.53 1001.31 1002.40 1002.45 1002.74 1002.43 1001.45 1000.28 998.32 997.76 997.62 996.43 994.95 992.99 993.44 993.70 994.10
1019.45 1018.85 1018.06 1016.04 1014.67 1013.65 1012.38 1011.50 1010.70 1010.34 1009.85 1009.51 1008.63 1007.69 1007.20 1007.04 1006.71 1005.85 1004.78 1004.41 1005.66 1007.69 1008.56 1009.07 1008.49 1006.88 1003.64 1001.66 1000.79 1002.01 1003.96 1004.42 1004.22 1003.62 1003.05 1001.60 999.99 999.63 998.38 996.89 995.15 993.56 993.87 993.80 994.17
Wind_Speed
19 19 19 19 18 18 18 17 17 17 16 15 15 16 17 18 22 18 6 4 4 8 11 14 17 11 12 15 18 18 17 19 27 27 24 24 25 23 25 15 14 16 19 9 15
20 19 19 19 18 17 17 16 16 16 16 16 16 16 17 18 17 12 4 4 5 8 11 14 11 14 9 13 15 19 18 25 23 23 24 25 26 28 26 13 11 14 21 10 18
20 20 20 19 19 17 17 16 16 16 16 16 15 17 17 16 11 7 8 5 1 8 13 16 13 13 15 15 15 18 20 22 24 24 25 27 28 29 26 25 13 16 22 23 15
20 20 20 19 18 17 17 17 17 17 17 16 16 15 16 9 3 9 10 5 5 10 13 11 10 13 14 15 14 18 18 20 23 22 23 25 26 28 26 24 17 13 17 21 19
20 20 20 19 18 17 17 17 17 17 17 16 14 12 10 9 1 10 7 6 9 12 10 10 11 12 14 15 16 16 16 16 15 17 19 21 24 26 28 26 20 20 22 15 16
19 20 20 19 18 17 16 16 16 18 15 13 11 8 8 12 8 14 8 9 10 9 12 9 13 14 10 15 15 18 19 19 19 14 16 19 23 23 27 24 21 22 24 19 20
20 20 20 20 19 18 16 15 15 16 12 10 7 8 10 11 2 2 7 9 10 10 11 13 12 10 14 17 16 15 17 17 19 16 19 19 22 25 25 26 24 24 24 22 21
21 20 20 20 19 18 17 15 17 15 8 6 5 9 9 4 3 8 11 10 10 11 11 12 14 15 14 16 18 20 20 19 17 21 23 21 23 22 22 24 26 27 26 24 19
22 21 20 21 20 18 17 15 17 13 9 6 7 9 12 2 10 10 7 13 7 13 10 9 10 14 15 17 16 18 19 22 23 22 17 17 26 22 20 22 24 27 26 25 20
23 22 21 20 20 18 16 16 8 10 8 10 11 8 11 10 7 9 14 21 14 9 14 15 14 14 15 14 15 19 18 20 19 17 10 17 20 19 21 21 21 24 24 27 25
25 23 22 20 18 16 13 5 4 6 11 16 11 14 17 11 6 11 16 5 12 9 16 17 16 16 21 18 21 22 23 25 23 24 20 18 18 20 23 18 20 20 24 26 28
26 25 23 20 18 14 7 8 12 11 14 15 9 9 10 11 10 16 11 7 11 15 18 16 20 23 23 22 23 23 25 26 26 23 24 21 28 21 17 21 20 23 22 19 24
26 25 22 19 16 7 13 10 9 10 8 7 3 7 5 7 15 20 2 10 17 19 20 21 23 23 22 21 20 22 24 24 25 24 27 24 27 25 22 22 24 21 23 22 21
27 26 23 21 6 12 11 13 11 7 6 5 6 3 7 13 16 6 3 9 16 21 21 22 21 23 24 25 21 25 21 21 24 23 19 18 19 21 23 20 21 26 22 23 22
27 26 22 7 11 9 13 11 9 3 4 8 5 0 11 17 13 12 12 9 14 19 19 23 25 26 27 27 24 25 24 15 17 21 17 24 15 21 17 25 25 20 22 23 24
27 24 21 3 7 13 13 9 5 7 4 9 16 21 20 20 13 19 17 15 18 20 20 26 26 25 24 27 27 25 25 20 15 12 17 17 17 23 21 25 21 26 23 27 25
31 22 13 9 8 14 10 9 8 6 19 14 24 24 22 19 18 20 21 21 17 15 16 21 22 25 11 21 25 15 14 4 10 11 17 13 18 20 23 23 30 20 22 28 27
33 24 9 11 11 10 8 10 12 19 17 20 21 24 18 24 22 21 26 23 16 11 8 11 11 10 9 10 5 7 8 7 7 5 8 19 7 15 21 25 23 19 25 23 29
31 3 6 2 9 6 8 5 9 13 15 20 22 15 20 23 21 24 25 15 10 13 7 8 8 27 29 18 15 4 8 2 7 11 15 18 23 15 22 18 19 19 8 22 23
11 9 2 10 8 6 10 3 8 12 15 16 16 16 24 22 20 19 15 13 23 8 6 4 16 16 21 18 18 14 8 5 5 7 17 13 18 12 12 8 13 19 15 19 12
5 7 5 11 7 10 8 13 16 14 13 12 22 21 20 18 21 20 10 17 7 12 12 10 7 13 17 9 17 4 6 8 8 9 7 14 11 7 8 9 2 19 21 16 15
9 8 7 10 6 8 11 18 17 10 12 14 15 16 19 23 15 19 10 18 11 3 6 4 5 9 21 27 22 18 15 15 7 10 12 14 13 12 7 8 5 16 19 14 16
9 11 4 10 7 8 14 16 14 15 13 15 13 18 22 18 16 10 21 20 17 5 4 5 4 9 12 1 6 7 11 16 10 9 18 14 11 7 4 9 11 14 16 19 18
7 8 9 11 12 16 16 16 18 15 14 13 18 20 20 22 22 23 25 8 13 5 11 8 5 9 15 22 20 20 14 16 18 10 18 18 21 20 18 12 16 13 17 20 18
4 8 10 10 12 16 16 19 17 19 17 18 14 20 23 22 24 24 28 27 19 8 3 3 8 16 22 25 26 27 25 23 21 21 21 17 21 15 14 11 16 14 17 15 14
7 9 8 15 17 20 16 16 21 20 21 16 18 22 21 21 23 30 30 25 11 4 3 4 6 16 24 26 17 19 5 10 10 16 15 17 22 11 13 13 22 21 12 15 16
9 9 8 10 13 15 15 19 22 23 12 20 20 21 22 23 26 28 25 24 6 5 3 2 4 5 10 19 24 2 7 11 11 15 9 11 16 16 18 21 22 15 13 9 21
Wind_Direction
347 344 342 338 335 332 331 328 327 325 325 323 323 322 321 320 306 272 253 35 18 359 325 282 268 236 243 252 265 245 251 251 254 257 269 278 277 277 281 264 207 254 265 101 105
345 342 340 337 334 332 327 325 324 324 323 325 324 323 323 323 299 278 112 117 33 350 310 329 320 321 279 249 244 246 244 253 258 270 282 286 284 287 280 256 212 250 267 222 142
345 343 341 338 333 330 326 323 321 318 316 316 317 317 320 316 283 96 155 119 262 288 286 294 287 276 275 270 251 239 252 266 268 281 289 298 301 303 301 283 194 228 246 262 183
342 342 339 335 330 326 322 318 315 312 311 312 312 313 316 286 352 104 153 171 262 288 284 281 278 276 273 274 262 245 257 267 276 278 284 286 297 295 291 278 308 258 231 258 252
339 338 336 331 326 322 318 314 309 305 303 302 304 313 301 238 232 129 145 204 261 259 284 297 299 286 282 285 285 276 277 281 284 282 280 278 273 278 284 292 308 313 302 285 269
336 336 335 330 323 319 315 310 306 304 298 291 291 296 260 268 81 140 203 235 255 278 289 297 303 325 311 279 281 292 298 291 292 288 280 278 279 269 271 285 290 296 294 287 286
335 333 332 329 323 318 313 310 310 302 295 282 271 256 272 274 9 295 223 250 277 294 292 294 295 289 300 299 286 293 281 278 265 261 260 263 263 265 270 264 272 272 277 275 276
333 331 329 327 320 315 310 310 308 297 294 280 241 252 275 120 345 273 256 272 265 233 255 283 294 292 280 284 283 278 271 271 268 252 242 231 258 252 250 262 261 262 271 271 255
332 331 328 327 318 311 305 305 297 285 268 251 232 229 279 134 240 235 295 292 297 301 243 252 281 277 284 276 268 253 252 251 256 244 244 243 240 241 245 242 242 245 252 264 262
332 331 327 323 316 309 303 286 296 273 229 223 251 262 245 256 330 314 280 266 302 291 276 237 237 245 245 243 256 272 284 286 284 293 294 258 258 252 250 256 249 238 234 235 252
333 331 328 323 315 314 316 228 248 185 238 286 273 249 291 279 293 287 279 307 293 254 261 261 233 238 256 265 277 274 272 278 281 288 277 259 255 267 276 242 258 242 235 235 226
335 333 331 324 315 313 279 292 9 311 307 286 258 272 258 254 282 279 311 305 270 257 261 260 250 255 260 247 260 277 279 276 278 281 278 271 282 257 255 284 248 272 245 254 214
335 332 329 322 318 273 243 16 331 317 284 268 240 287 329 315 274 291 315 281 279 281 285 278 282 292 283 267 254 252 259 271 278 282 279 278 263 263 252 256 258 242 266 265 227
334 332 329 322 295 307 9 340 341 16 272 140 170 93 284 280 288 267 308 287 295 283 287 282 294 284 272 271 272 277 267 273 296 269 265 266 273 263 272 263 243 248 241 255 267
336 332 327 321 312 327 345 348 357 239 265 15 338 286 271 303 296 343 329 230 263 278 286 280 284 280 275 274 281 278 290 274 283 273 277 255 264 271 246 249 252 254 225 242 252
336 332 332 294 220 298 336 336 252 240 337 344 0 337 331 301 351 350 333 312 293 290 285 285 275 268 265 260 256 267 263 264 256 270 259 254 248 262 255 256 248 241 218 221 231
330 325 312 312 312 333 332 289 261 266 358 9 337 337 311 306 346 346 338 328 295 291 280 296 297 286 301 296 251 340 286 266 228 213 250 269 248 246 260 250 249 226 240 211 210
325 315 245 251 316 326 303 276 276 355 340 341 335 316 314 356 350 341 341 325 342 331 303 278 303 3 3 22 350 303 267 227 284 249 294 288 258 284 265 245 261 250 227 213 199
316 245 251 3 328 321 287 328 349 332 336 335 328 319 342 325 351 349 340 324 346 27 335 314 273 328 306 300 276 245 235 307 286 275 270 260 265 238 271 270 250 252 242 257 197
315 285 314 338 342 298 286 276 318 355 340 338 325 326 318 344 340 338 328 312 331 72 13 284 287 284 291 291 269 245 254 213 194 257 263 254 274 256 230 208 343 321 214 252 258
251 289 63 352 302 274 306 358 335 346 346 325 320 316 318 326 329 320 305 302 339 330 332 303 226 280 301 244 262 220 217 211 252 242 271 288 288 23 350 33 323 299 310 221 243
300 327 42 345 324 2 354 332 314 310 309 321 316 312 317 317 322 318 278 296 331 257 264 259 277 277 285 281 270 272 231 231 226 246 239 255 271 279 301 302 302 288 289 284 228
307 303 62 342 349 325 336 329 324 324 321 331 314 312 304 313 307 273 285 302 296 325 241 195 234 298 296 183 46 274 239 229 242 258 256 261 261 304 224 288 269 267 284 279 230
286 318 348 320 358 341 334 315 318 334 340 327 313 313 313 325 314 301 315 303 296 192 269 160 235 231 267 284 304 291 263 261 242 251 263 247 269 264 267 273 267 245 263 269 281
306 354 10 319 322 314 296 306 322 332 331 324 325 320 319 309 306 321 314 316 331 94 124 235 262 274 273 270 270 272 279 273 257 245 254 273 254 255 283 326 293 258 257 287 126
346 336 327 300 322 307 314 348 328 324 323 325 320 312 309 313 334 321 315 305 311 157 258 222 272 295 289 283 271 264 28 359 349 318 306 301 286 330 345 309 287 261 275 273 160
355 337 294 291 329 322 330 321 322 329 325 317 307 311 324 338 323 305 286 277 247 162 235 241 291 295 278 309 307 90 50 5 308 293 288 271 296 321 290 261 254 251 246 222 147